Location: Newark
(20.0000°S, 47.0000°E)
Time: 01:33:57
(UTC+00:00)

Envisat - Pass Details

Date: 23 June 2019
Orbit: 764 x 766 km, 98.1° (Epoch: 14 October)

Event Time Altitude Azimuth Distance (km) Brightness Sun altitude
Exits shadow 15:51:46 24° 163° (SSE) 1,570 4.3 -20.5°
Maximum altitude 15:54:57 80° 78° (ENE) 783 2.9 -21.2°
Drops below altitude 10° 16:00:00 10° 351° (N) 2,290 5.8 -22.3°
Sets 16:02:17 0° 350° (N) 3,209 6.6 -22.8°
